AMC-3 1 24936U 97050A 25353.37884244 -.00000244 00000+0 00000+0 0 9992 2 24936 7.7052 66.1396 0002974 208.4751 237.9898 1.00271853 50634 NSS-11 1 26554U 00059A 25353.73002878 .00000048 00000+0 00000+0 0 9999 2 26554 1.6620 83.5845 0002818 178.4406 265.3581 1.00272127 39498 AMC-6 1 26580U 00067A 25353.66859466 .00000113 00000+0 00000+0 0 9995 2 26580 0.0205 348.4947 0002626 269.8324 295.8225 1.00272266 92098 AMC-11 1 28252U 04017A 25353.53594796 -.00000025 00000+0 00000+0 0 9993 2 28252 0.0246 316.4947 0002867 316.6553 257.0893 1.00271824 79071 AMC-15 1 28446U 04041A 25353.55811350 -.00000064 00000+0 00000+0 0 9998 2 28446 0.0179 12.1103 0002225 247.6865 284.4789 1.00271346 77505 NSS-10 1 28526U 05003A 25353.47394008 -.00000232 00000+0 00000+0 0 9990 2 28526 6.0014 72.6444 0002754 199.3312 309.5122 1.00272903 51359 ASTRA 1KR 1 29055U 06012A 25353.77039225 .00000144 00000+0 00000+0 0 9990 2 29055 0.0209 12.6145 0005361 240.8689 131.6747 1.00270782 43895 ASTRA 1L 1 31306U 07016A 25353.84111270 .00000099 00000+0 00000+0 0 9995 2 31306 0.8578 82.7767 0002088 164.6296 160.1196 1.00073012 43186 ASTRA 4A 1 32299U 07057A 25353.83894602 .00000057 00000+0 00000+0 0 9992 2 32299 0.0169 327.8636 0002193 290.2046 137.4538 1.00273855 49843 AMC-21 1 33275U 08038B 25353.55163803 .00000104 00000+0 00000+0 0 9991 2 33275 2.4833 82.5167 0001894 86.9997 344.7247 0.99156878 63699 ASTRA 1M 1 33436U 08057A 25353.77039225 .00000144 00000+0 00000+0 0 9999 2 33436 0.0480 63.6648 0002313 151.0838 170.4212 1.00268841 43937 NSS-9 1 33749U 09008A 25353.66027461 .00000095 00000+0 00000+0 0 9995 2 33749 0.7968 84.3438 0001620 175.6744 249.2577 1.00270847 61722 SES-7 (PROTOSTAR 2) 1 34941U 09027A 25353.90461586 -.00000321 00000+0 00000+0 0 9991 2 34941 0.0193 37.0650 0001907 232.8004 252.7928 1.00271582 60831 NSS-12 1 36032U 09058A 25353.86017044 .00000096 00000+0 00000+0 0 9997 2 36032 0.0726 66.8239 0004531 199.0760 189.4671 1.00272014 59120 SES-1 1 36516U 10016A 25353.55948955 -.00000090 00000+0 00000+0 0 9995 2 36516 0.0179 324.2833 0002611 316.1417 268.3995 1.00271664 57234 ASTRA 3B 1 36581U 10021A 25353.82822348 .00000160 00000+0 00000+0 0 9997 2 36581 1.0052 85.9570 0002082 183.1980 141.1619 1.00271316 57061 SES-3 1 37748U 11035A 25353.67492138 -.00000078 00000+0 00000+0 0 9991 2 37748 0.8624 85.1072 0003215 206.4183 296.9661 1.00271643 52795 ASTRA 1N 1 37775U 11041A 25353.77039225 .00000144 00000+0 00000+0 0 9996 2 37775 0.0702 33.6382 0001540 279.1603 72.2990 1.00272786 42720 SES-2 1 37809U 11049A 25353.47715110 -.00000172 00000+0 00000+0 0 9995 2 37809 0.0301 49.2070 0002478 216.3642 267.5440 1.00272686 52164 QUETZSAT 1 1 37826U 11054A 25353.53738049 -.00000217 00000+0 00000+0 0 9993 2 37826 0.0173 24.2226 0002649 262.8945 277.7429 1.00271140 48077 SES-4 1 38087U 12007A 25353.40559269 -.00000144 00000+0 00000+0 0 9992 2 38087 0.0214 26.6017 0002725 240.4727 305.2048 1.00269356 50424 SES-5 1 38652U 12036A 25353.55367394 .00000058 00000+0 00000+0 0 9997 2 38652 0.0560 306.3355 0001798 319.4841 26.8788 1.00271062 42652 ASTRA 2F 1 38778U 12051A 25353.84353937 .00000174 00000+0 00000+0 0 9992 2 38778 0.0627 256.5453 0003836 349.0108 174.9865 1.00272416 39336 SES-6 1 39172U 13026A 25353.47333343 -.00000236 00000+0 00000+0 0 9992 2 39172 0.0199 339.2564 0002175 292.8158 306.1563 1.00272449 45928 O3B FM5 1 39188U 13031A 25353.13876258 -.00000015 00000+0 00000+0 0 9990 2 39188 0.0788 36.7942 0003541 228.8418 94.3258 5.00116416228020 O3B FM4 1 39189U 13031B 25342.66350193 -.00000022 00000+0 00000+0 0 9990 2 39189 0.0601 353.4607 0004425 287.2177 79.2728 5.00115125227529 O3B FM2 1 39190U 13031C 25353.72331351 -.00000015 00000+0 00000+0 0 9998 2 39190 0.0636 347.7018 0002897 280.6953 91.5719 5.00116007228136 O3B PFM 1 39191U 13031D 25353.53751530 -.00000015 00000+0 00000+0 0 9993 2 39191 0.0398 15.0235 0004437 263.4509 81.4775 5.00115992227687 ASTRA 2E 1 39285U 13056A 25353.84362604 .00000175 00000+0 00000+0 0 9994 2 39285 0.0564 10.1948 0002232 258.9254 151.7792 1.00273923 44615 SES-8 1 39460U 13071A 25353.85679947 -.00000245 00000+0 00000+0 0 9997 2 39460 0.0207 296.1567 0000434 354.4130 201.5822 1.00272382 42641 ASTRA 5B 1 39617U 14011B 25353.82822348 .00000161 00000+0 00000+0 0 9994 2 39617 0.0429 358.0682 0003845 262.2755 149.9909 1.00270681 42860 O3B FM3 1 40079U 14038A 25352.80454094 -.00000016 00000+0 00000+0 0 9993 2 40079 0.0525 356.7524 0001044 206.8888 156.3564 5.00115563204029 O3B FM7 1 40080U 14038B 25353.15040244 -.00000015 00000+0 00000+0 0 9991 2 40080 0.0600 356.6158 0004517 275.7267 87.6082 5.00115498208876 O3B FM6 1 40081U 14038C 25353.57720897 -.00000015 00000+0 00000+0 0 9997 2 40081 0.0553 356.2254 0002753 271.3675 92.3778 5.00115649208842 O3B FM8 1 40082U 14038D 25353.43067438 -.00000015 00000+0 00000+0 0 9998 2 40082 0.0564 356.2195 0002645 274.3691 89.3833 5.00115943208957 O3B FM10 1 40348U 14083A 25352.45816480 -.00000016 00000+0 00000+0 0 9994 2 40348 0.0658 4.0523 0002690 248.7961 107.1246 5.00115107200854 O3B FM11 1 40349U 14083B 25353.47040051 -.00000015 00000+0 00000+0 0 9990 2 40349 0.0512 4.7421 0003411 258.7780 96.4432 5.00115616200920 O3B FM12 1 40350U 14083C 25353.29765608 -.00000015 00000+0 00000+0 0 9994 2 40350 0.0512 3.7428 0002805 259.6350 96.5924 5.00115929200921 O3B FM9 1 40351U 14083D 25353.72426065 -.00000015 00000+0 00000+0 0 9994 2 40351 0.0518 5.8051 0002784 262.9525 91.2126 5.00115832201098 ASTRA 2G 1 40364U 14089A 25353.84353937 .00000174 00000+0 00000+0 0 9999 2 40364 0.0459 358.6821 0001574 25.5912 36.2894 1.00270430 40161 SES-9 1 41380U 16013A 25353.78807236 -.00000321 00000+0 00000+0 0 9991 2 41380 0.0153 326.3974 0000335 134.3844 19.8468 1.00270665 35640 SES-10 1 42432U 17017A 25353.48461853 -.00000249 00000+0 00000+0 0 9992 2 42432 0.0246 40.3382 0003304 239.1215 276.4478 1.00286808 31940 SES-15 1 42709U 17026A 25353.54868196 .00000084 00000+0 00000+0 0 9993 2 42709 0.0184 341.3465 0000645 214.8839 320.5407 1.00276643 5637 SES-11 (ECHOSTAR 105) 1 42967U 17063A 25353.67457471 -.00000065 00000+0 00000+0 0 9994 2 42967 0.0146 3.6318 0002831 257.3830 325.4182 1.00271733 29925 SES-14 1 43175U 18012B 25353.75721883 -.00000254 00000+0 00000+0 0 9991 2 43175 0.0137 8.5232 0000878 246.6322 58.5472 1.00270982 5220 O3B FM15 1 43231U 18024A 25353.59109349 -.00000015 00000+0 00000+0 0 9991 2 43231 0.0447 358.7310 0002871 265.7257 95.5127 5.00115570142043 O3B FM16 1 43232U 18024B 25353.44361136 -.00000015 00000+0 00000+0 0 9990 2 43232 0.0409 356.3496 0002924 268.6872 94.9321 5.00115820141951 O3B FM14 1 43233U 18024C 25353.08454359 -.00000015 00000+0 00000+0 0 9991 2 43233 0.0409 354.0926 0002875 274.8547 91.0221 5.00115533141934 O3B FM13 1 43234U 18024D 25353.55018244 -.00000015 00000+0 00000+0 0 9993 2 43234 0.0600 356.5865 0004542 276.0211 87.3426 5.00115564142066 SES-12 1 43488U 18049A 25353.85679947 -.00000245 00000+0 00000+0 0 9992 2 43488 0.0173 22.1794 0002356 242.4628 227.5097 1.00270707 27622 O3B FM20 1 44112U 19020A 25353.71022265 -.00000015 00000+0 00000+0 0 9992 2 44112 0.0478 0.4211 0003149 258.8968 100.6488 5.00115496122591 O3B FM19 1 44113U 19020B 25352.33817523 -.00000016 00000+0 00000+0 0 9990 2 44113 0.0548 17.8101 0004586 281.8466 60.3000 5.00115863122393 O3B FM17 1 44114U 19020C 25353.61749801 -.00000015 00000+0 00000+0 0 9995 2 44114 0.0499 337.4240 0002882 285.9962 96.5492 5.00115395122539 O3B FM18 1 44115U 19020D 25353.16398182 -.00000015 00000+0 00000+0 0 9998 2 44115 0.0478 0.9797 0002835 265.8797 93.1105 5.00115227122647 SES-17 1 49332U 21095A 25353.48461862 -.00000248 00000+0 00000+0 0 9998 2 49332 0.0188 23.0866 0001016 215.2634 317.3487 1.00271180 16051 SES-22 1 52933U 22071A 25353.66781466 .00000129 00000+0 00000+0 0 9996 2 52933 0.0230 54.0334 0000804 221.9208 273.9671 1.00273155 5727 SES-20 1 53960U 22123A 25353.55880674 -.00000076 00000+0 00000+0 0 9996 2 53960 0.0216 61.8131 0001186 23.0334 101.6260 1.00269007 11738 SES-21 1 53961U 22123B 25353.74066539 .00000094 00000+0 00000+0 0 9993 2 53961 0.0257 39.8939 0001049 228.4913 315.8428 1.00269350 5411 O3B MPOWER F1 1 54755U 22174A 25353.63375443 -.00000015 00000+0 00000+0 0 9990 2 54755 0.0625 0.8133 0004486 279.6692 67.6325 5.00116120 56375 O3B MPOWER F2 1 54756U 22174B 25353.43886883 -.00000015 00000+0 00000+0 0 9994 2 54756 0.0634 358.3499 0005925 274.5062 87.0783 5.00116615 56447 SES-18 1 55970U 23038A 25353.55880674 -.00000077 00000+0 00000+0 0 9996 2 55970 0.0222 293.7994 0002875 338.2191 274.4639 1.00271867 10307 SES-19 1 55971U 23038B 25353.66859466 .00000112 00000+0 00000+0 0 9993 2 55971 0.0120 337.5392 0001452 291.0554 285.7163 1.00272512 10285 O3B MPOWER F4 1 56367U 23059A 25350.07546715 -.00000017 00000+0 00000+0 0 9993 2 56367 0.0507 13.9474 0005848 267.5378 78.4514 5.00114492 49448 O3B MPOWER F3 1 56368U 23059B 25353.67509265 -.00000015 00000+0 00000+0 0 9990 2 56368 0.0519 14.1143 0006189 255.3156 90.5014 5.00115329 45756 O3B MPOWER F5 1 58346U 23175A 25353.60675623 -.00000015 00000+0 00000+0 0 9992 2 58346 0.0379 350.8059 0004300 270.6368 98.5108 5.00115401 40446 O3B MPOWER F6 1 58347U 23175B 25353.10709269 -.00000015 00000+0 00000+0 0 9992 2 58347 0.0429 359.6364 0006296 252.0708 108.2265 5.00114941 39345 ASTRA 1P (SES-24) 1 60086U 24115A 25353.05712065 .00000145 00000+0 00000+0 0 9995 2 60086 0.0637 331.5049 0005919 309.5996 206.5689 1.00269649 5398 O3B MPOWER F7 1 62362U 24244A 25353.77358521 -.00000015 00000+0 00000+0 0 9996 2 62362 0.0591 16.7568 0006227 253.5066 89.6674 5.00115356 17557 O3B MPOWER F8 1 62363U 24244B 25353.74067200 -.00000015 00000+0 00000+0 0 9995 2 62363 0.0711 330.5244 0006986 295.7095 93.6884 5.00115948 11898